Regional Weather Roundup
Issued by NWS

Home | Current Version | Previous Version | Graphics & Text | Print | Product List | Glossary Off
Versions: 1 2 3 4 5 6 7 8 9 10 11 12 13 14 15 16 17 18 19 20 21 22 23 24 25 26 27 28 29 30 31 32 33 34 35 36 37 38 39 40 41 42 43 44 45 46 47 48 49 50

000
ASUS43 KIND 260209
RWRIN

WEATHER ROUNDUP FOR INDIANA
NATIONAL WEATHER SERVICE INDIANAPOLIS IN
1000 PM EDT MON SEP 25 2017

NOTE: "FAIR" INDICATES FEW OR NO CLOUDS BELOW 12,000 FEET WITH NO
SIGNIFICANT WEATHER AND/OR OBSTRUCTIONS TO VISIBILITY.

* - STATION DOES NOT REPORT WEATHER SUCH AS PRECIPITATION OR FOG.

+ - STATION NOT QUALITY CONTROLLED BY THE NATIONAL WEATHER SERVICE.
    USE DATA WITH CAUTION...ESPECIALLY DEWPOINT AND RELATIVE
    HUMIDITY OBSERVATIONS.

INZ001>003-010>013-019-020-260300-
NORTHWEST INDIANA

CITY           SKY/WX    TMP DP  RH WIND       PRES   REMARKS
GARY /AIRPORT/ CLEAR     68  61  77 CALM      29.96R
KNOX *+        CLEAR     66  61  82 CALM      29.97S
LA PORTE +     CLEAR     67  59  75 CALM      29.98S
MICHIGAN CITY+ CLEAR     66  61  82 CALM      29.97S
MONTICELLO +   CLEAR     69  61  76 CALM      29.96S
RENSSELAER +   CLEAR     72  50  46 CALM      29.96S
VALPARAISO     CLEAR     70  58  65 CALM      29.97S

$$

LMZ046-743>745-260300-
SOUTHERN LAKE MICHIGAN

STATION/POSITION TIME  TEMP    WIND        PRES    WAVE
                       AIR SEA DIR/SP/G            HT
                 (UTC) (F)     (DEG/KT/KT) (MB)    (FT)
BURNS HARBOR     0140   80     170/  4/  6 1014.9R
MICHIGAN CITY    0140   78     130/  6/  8   N/A
5NW MICH CITY    0200   74 72  150/  4/  6   N/A     0

$$

INZ004-005-014>016-021>024-260300-
NORTH CENTRAL INDIANA

CITY           SKY/WX    TMP DP  RH WIND       PRES   REMARKS
GOSHEN         CLEAR     68  60  75 CALM      29.97S
LOGANSPORT +   CLEAR     70  57  64 CALM      29.98R
PERU/GRISSOM   CLEAR     71  59  67 CALM      29.97R
SOUTH BEND     CLEAR     68  61  78 CALM      29.98R
WARSAW +       CLEAR     68  63  83 CALM      29.98S

$$

INZ006>009-017-018-025>027-260300-
NORTHEAST INDIANA

CITY           SKY/WX    TMP DP  RH WIND       PRES   REMARKS
AUBURN +       CLEAR     70  61  73 CALM      29.98F
FORT WAYNE     PTCLDY    69  62  78 SE3       29.98S
HUNTINGTON +   CLEAR     70  65  84 CALM      29.98R
KENDALLVILLE + CLEAR     68  64  85 CALM      29.99S

$$

INZ028-029-035-036-043>045-051>053-260300-
WEST CENTRAL INDIANA

CITY           SKY/WX    TMP DP  RH WIND       PRES   REMARKS
CRAWFORDSVL +  CLEAR     66  63  88 CALM      29.98R
GREENCASTLE +  CLEAR     72  61  68 CALM      29.99R
LAFAYETTE      CLEAR     70  64  81 CALM      29.96R
TERRE HAUTE    CLEAR     70  63  78 CALM      29.96R

$$

INZ030>032-037>040-046>048-054>057-064-065-260300-
CENTRAL INDIANA

CITY           SKY/WX    TMP DP  RH WIND       PRES   REMARKS
CP ATTERBURY + CLEAR     68  64  88 CALM      29.99R
COLUMBUS       CLEAR     70  64  83 CALM      29.98R
FISHERS *+     CLEAR     68  63  83 SE3       29.98R
FRANKFORT +    CLEAR     67  63  85 CALM      30.00R
GREENWOOD *+   CLEAR     76  64  67 S6        29.99
INDIANAPOLIS   PTCLDY    79  61  53 S9        29.98R
-EAGLE CREEK   CLEAR     76  61  59 CALM      29.97R
KOKOMO +       CLEAR     71  61  70 CALM      29.99R
MARION +       CLEAR     66  63  88 S3        29.99R
MT COMFORT *+  CLEAR     66  61  82 S3        29.99R
SHELBYVILLE    CLEAR     69  61  75 CALM      29.98R
ZIONSVILLE +   CLEAR     67  62  84 CALM      29.99R

$$

INZ033-034-041-042-049-050-058-059-260300-
EAST CENTRAL INDIANA

CITY           SKY/WX    TMP DP  RH WIND       PRES   REMARKS
MUNCIE         CLEAR     77  60  55 S3        29.99R
RICHMOND +     CLOUDY    70  61  73 CALM      30.01S

$$

INZ060-061-067>069-081>083-085>088-260300-
SOUTHWEST INDIANA

CITY           SKY/WX    TMP DP  RH WIND       PRES   REMARKS
EVANSVILLE     CLEAR     74  67  78 CALM      29.96R
HUNTINGBURG +  CLEAR     73  68  84 CALM      29.97R HAZE
WASHINGTON +   CLEAR     73  63  68 S3        29.96R

$$

INZ062-063-066-070>080-084-089>092-260300-
SOUTH CENTRAL AND SOUTHEAST INDIANA

CITY           SKY/WX    TMP DP  RH WIND       PRES   REMARKS
BEDFORD +      CLEAR     75  64  69 CALM      29.97R
BLOOMINGTON    CLEAR     72  62  71 CALM      29.98R
MADISON *+     CLEAR     68  64  88 CALM      30.01R
NORTH VERNON + CLEAR     66  64  94 CALM      29.99R
SEYMOUR +      CLEAR     70  64  83 CALM      29.98R

$$




USA.gov is the U.S. government's official web portal to all federal, state and local government web resources and services.